Find Starlink 30807

NORAD ID: 58192 Int'l Des: 2023-167 Owner: SPXS Country: US Constellation: starlink operational
LEOCIRCULAR

Live Position

Loading 3D Globe...

About Starlink 30807

Description loading...

Upcoming Passes

Passes for default location (London). Set your location on the main map for personalized predictions.

Altitude History

Loading altitude history...

Two-Line Element Set

1 58192U 23167T 26125.50355189 .00031740 00000-0 11572-2 0 9999
2 58192 42.9978 182.5740 0001779 269.3340 90.7308 15.27602205139677
Epoch: May 5, 2026 • Age: 17 hours

Current Status

Altitude 489.5 km
Velocity 7.62 km/s
Sub-Earth Point -28.35°S, 98.43°E
Launch Date Oct 30, 2023
Age 2.5 years
Type internet

Technical Details

Classification Payload
Mass 730.00 kg
Dry Mass 700.00 kg
Total Mass 730.00 kg
Length 0.30 m
Diameter 4.10 m
Span 29.00 m
Shape Box + pan
Manufacturer SPXS
Bus Type Starlink V2M
Phase Status In Orbit
Owner/State SPXS/US

Most Searched